Theta_e
277 277 276 275 275 274 274 273 273 273 273 272 272 272 272 272 271 271 271 271 271 271 271 271 271 271 271 271 271 271 272 272 272 273 273 272 271 271 271 271 271 270 270 270 269 270 270 269 269 268 268 268 268 268 268 268 268 268 268 268 268 268 269 269 267 266 266 265 265 264 264 264 264 264 264 264 264 264 265 265 265 265 265 266 266
275 276 275 274 274 273 273 273 272 272 272 272 272 271 271 270 270 271 271 271 271 271 271 271 271 271 271 271 271 271 272 272 271 272 272 271 271 270 270 270 270 269 269 268 268 268 268 268 267 266 267 267 267 267 267 267 267 267 267 267 267 267 267 267 266 265 265 265 264 264 264 264 264 263 263 263 263 263 264 264 263 263 264 264 264
275 275 274 273 273 272 272 272 271 271 271 271 271 270 270 270 270 270 271 271 271 272 272 272 272 272 272 271 271 271 271 271 271 271 271 270 270 269 269 269 268 268 268 267 267 267 267 267 266 265 266 266 266 266 265 265 266 266 266 266 266 265 265 266 265 264 264 264 264 263 263 263 263 263 262 262 262 262 262 262 262 262 262 262 262
273 273 273 272 272 272 271 271 271 270 270 270 270 269 269 269 269 270 270 270 270 271 271 272 272 272 272 271 271 271 271 271 270 270 270 269 269 268 268 268 268 267 267 266 266 266 266 266 265 265 265 266 265 265 265 265 265 265 265 265 265 264 264 264 264 263 263 263 263 263 262 262 262 262 262 262 262 262 261 261 262 262 262 261 261
272 272 272 271 271 271 270 270 270 270 269 269 269 268 269 269 269 269 269 269 269 269 270 270 271 271 271 271 271 270 270 270 270 269 269 269 268 268 267 267 267 266 266 266 266 266 266 266 265 265 265 265 265 264 264 264 264 264 264 264 263 263 263 262 263 263 262 262 262 262 262 262 262 262 261 261 261 261 261 261 261 262 262 262 262
272 271 271 271 270 270 269 269 269 269 269 268 268 268 268 268 268 268 268 269 269 269 269 269 270 270 270 270 270 269 269 269 269 268 268 268 268 267 267 267 266 266 265 265 265 265 265 265 264 264 264 264 264 263 263 263 263 263 263 263 262 262 262 262 262 262 261 261 261 262 262 261 261 261 261 260 260 260 260 261 262 261 261 262 262
271 270 270 270 269 269 268 268 268 268 268 267 267 267 267 267 267 267 267 268 268 268 268 268 269 269 269 269 269 269 268 268 268 268 267 267 267 267 266 266 266 265 265 264 264 264 264 264 264 263 264 263 263 262 262 262 262 262 262 262 262 262 261 261 261 261 261 260 261 261 261 261 261 260 260 260 259 260 259 259 261 261 260 260 262
270 269 269 269 268 268 267 267 267 267 267 267 267 266 266 266 267 267 267 267 267 267 268 268 268 268 268 268 268 268 268 268 267 267 267 266 266 266 265 265 265 264 264 264 264 263 263 263 263 262 262 262 262 262 262 262 262 262 262 262 262 262 261 260 260 260 260 260 260 260 260 260 259 259 259 259 259 259 258 258 258 259 259 260 261
269 269 268 268 267 267 267 266 266 266 266 266 265 265 266 266 266 266 267 267 267 267 267 268 268 267 267 267 267 267 267 266 266 266 266 265 265 265 264 264 264 264 264 263 263 263 262 262 262 261 261 262 262 262 262 262 262 262 262 262 262 261 260 260 259 259 259 259 259 259 259 258 258 258 258 258 258 258 257 257 257 257 258 258 261
268 268 267 267 266 266 266 266 265 265 265 265 265 265 265 265 266 266 266 266 266 266 267 267 267 267 266 266 266 265 265 265 265 265 265 265 265 265 264 264 264 264 263 263 262 262 262 262 262 262 262 262 262 262 262 262 261 261 261 261 261 260 259 259 258 258 258 258 258 258 258 257 257 257 257 257 257 257 257 257 257 257 257 257 259
267 267 267 266 266 266 265 265 265 264 264 264 264 264 264 265 265 265 266 266 266 266 266 266 266 266 265 265 265 264 264 264 263 263 264 264 265 265 264 264 263 263 263 263 262 262 262 262 262 261 261 261 261 261 261 261 261 260 260 260 260 259 258 258 258 258 258 258 258 257 257 257 257 257 257 257 257 257 257 257 257 257 257 256 256
267 266 266 266 265 265 265 264 264 264 264 263 264 264 264 264 265 265 265 265 265 265 265 265 265 265 264 264 264 264 263 263 262 262 263 263 264 264 264 263 263 262 262 262 262 261 261 261 261 261 261 261 261 261 261 260 260 259 259 259 259 258 258 258 258 258 257 257 257 257 257 256 257 257 257 257 257 257 257 257 257 256 256 256 255
266 266 265 265 265 264 264 264 263 263 263 263 263 263 264 264 264 264 264 264 264 264 264 264 264 263 264 263 263 263 263 263 262 262 262 262 263 264 263 263 263 263 262 262 261 261 261 261 261 261 261 261 261 260 260 259 259 259 259 259 258 258 258 257 257 257 257 257 257 257 257 257 257 257 258 258 257 257 257 257 257 256 256 256 255
266 265 264 264 264 264 263 263 263 262 262 263 263 263 263 264 264 264 263 263 263 263 263 263 263 263 263 263 263 263 263 263 263 262 262 262 262 263 263 262 262 262 261 261 261 261 261 261 261 261 261 260 260 259 259 259 259 259 259 258 258 258 258 258 257 257 257 256 256 257 257 257 257 258 258 259 258 258 257 257 257 257 256 256 256
265 264 264 264 263 263 263 263 262 262 262 262 262 262 262 263 263 263 263 263 263 263 262 263 263 263 263 263 263 263 263 263 263 262 262 262 262 262 262 262 261 261 261 261 261 261 261 261 261 260 260 260 259 259 259 258 258 258 258 258 258 258 258 258 257 257 257 257 257 257 258 258 258 259 259 259 259 258 258 257 257 257 256 256 256
264 264 263 263 263 263 263 262 262 262 262 262 262 261 262 262 262 262 262 262 262 262 262 262 263 263 263 263 263 264 264 263 262 262 261 261 261 261 261 261 261 261 260 260 260 260 260 260 260 260 260 259 259 259 258 258 258 258 258 258 258 258 258 258 258 257 258 258 258 258 258 259 259 260 260 260 259 258 257 257 257 257 256 255 255
264 264 263 263 263 263 263 263 262 262 262 262 261 261 261 261 261 261 261 261 261 262 262 262 263 263 263 263 264 264 263 263 262 261 261 261 261 261 261 261 261 260 260 260 260 260 260 260 260 260 259 259 259 259 258 258 258 258 258 258 258 258 258 258 258 258 258 258 258 258 259 259 259 259 259 259 258 258 257 257 257 256 255 254 254
264 263 263 263 263 263 262 263 263 262 262 262 262 261 261 261 261 261 261 261 261 261 262 262 262 263 263 263 263 263 263 263 262 262 261 261 261 261 261 261 260 260 260 260 260 260 260 260 260 259 259 259 259 258 258 258 258 258 258 258 258 258 258 258 258 258 258 258 259 258 259 259 259 259 259 258 258 258 257 257 257 256 255 254 253
264 263 263 263 262 262 262 262 263 262 262 262 262 262 261 260 260 260 261 261 261 261 261 261 262 262 262 263 263 263 263 263 262 262 261 261 261 261 261 261 260 260 260 260 260 260 259 259 259 259 259 258 258 258 258 259 259 259 259 258 258 258 258 257 257 258 258 258 259 259 259 259 259 259 259 259 258 258 257 257 256 255 255 254 254
264 263 263 262 262 262 262 262 262 262 262 262 262 262 262 262 261 261 261 261 261 260 260 261 261 262 262 262 262 263 263 262 262 262 261 261 261 261 260 261 260 260 260 259 259 259 258 258 258 258 258 258 258 258 259 260 260 259 259 258 258 258 257 257 257 257 257 257 258 259 259 259 259 259 259 258 258 257 257 256 256 255 255 254 254
263 263 263 262 262 262 262 262 262 262 262 262 262 262 263 262 262 261 261 260 260 260 260 260 261 261 261 262 262 262 262 262 262 262 261 260 260 261 260 260 260 260 259 258 258 258 258 258 258 258 258 258 258 259 260 260 259 259 258 258 258 257 257 257 257 257 257 257 258 258 258 258 258 258 258 257 257 256 256 256 256 256 255 254 254
263 263 262 262 261 261 261 261 262 261 261 262 263 262 262 262 262 261 260 260 260 260 260 260 260 260 261 261 262 262 262 262 262 262 261 260 260 260 260 260 259 259 259 258 258 257 257 257 258 258 258 258 258 259 259 259 258 258 258 258 258 257 257 257 257 257 257 257 257 257 258 257 257 257 257 256 256 256 256 256 255 255 255 254 254
263 262 262 261 261 261 261 261 261 261 261 262 262 262 261 261 260 260 260 260 260 260 259 259 259 260 260 261 261 262 262 262 262 261 260 260 260 260 260 260 259 259 258 258 257 257 257 257 258 258 258 258 258 259 259 259 258 258 258 258 258 257 257 257 257 257 257 257 256 256 257 256 256 256 256 255 255 255 255 255 255 255 254 254 254
262 262 261 261 260 260 260 260 260 260 261 261 261 261 260 260 260 260 260 260 260 259 259 259 259 259 260 260 261 261 261 262 261 261 260 259 259 260 260 260 259 258 258 258 257 257 257 258 258 258 258 258 258 258 258 258 258 258 258 258 258 258 257 257 257 257 256 256 256 256 256 256 256 255 255 255 255 255 255 255 254 254 254 254 254
261 261 260 260 260 259 259 259 259 259 259 260 261 261 260 260 260 260 260 260 260 259 259 259 259 259 259 260 260 260 261 261 261 261 260 259 259 259 260 259 259 258 258 258 257 257 257 258 258 258 258 259 259 259 259 258 258 258 258 258 258 258 257 257 257 256 256 255 255 255 255 256 255 255 255 255 254 255 255 255 254 254 254 254 253
260 260 259 259 259 258 258 258 258 258 259 259 260 260 260 260 260 259 259 259 259 259 259 259 259 259 259 259 259 260 260 260 260 260 260 260 259 259 259 259 259 258 258 257 257 258 258 258 258 258 259 259 259 259 259 259 259 258 258 258 258 258 257 257 256 255 255 255 255 255 255 255 255 255 256 255 255 255 255 254 254 254 253 253 253
260 259 259 258 258 257 258 258 258 258 258 258 259 259 259 259 259 259 259 259 259 259 259 259 259 259 259 259 259 259 260 260 260 260 260 260 260 259 259 259 258 258 257 258 258 258 258 258 258 258 259 259 259 259 259 259 259 259 258 258 258 257 257 256 256 255 255 255 255 255 255 256 256 256 256 255 255 255 255 253 253 253 253 253 252
260 259 258 257 257 257 257 257 257 257 257 257 258 258 258 258 259 258 258 258 259 259 259 259 259 259 259 259 259 259 259 259 259 260 260 260 260 259 259 259 258 257 257 258 258 258 257 258 258 258 259 259 259 259 258 258 258 257 257 257 257 256 256 256 255 255 255 255 255 255 255 255 255 254 254 253 254 255 254 253 253 253 252 252 252
259 258 257 257 257 256 257 257 257 256 256 256 257 257 257 257 258 258 258 258 258 259 259 259 259 259 259 259 259 259 259 259 259 259 259 259 259 259 259 258 258 258 258 257 257 257 257 258 258 258 258 258 257 257 257 256 256 256 256 256 256 256 255 255 255 255 255 254 254 254 254 253 253 253 253 253 253 253 253 253 252 252 252 252 251
258 257 257 256 256 256 256 256 256 256 256 256 256 257 257 257 257 257 258 258 258 258 258 258 259 259 259 259 259 259 259 259 259 258 258 258 258 258 258 258 258 258 257 257 257 258 258 258 258 257 257 256 256 256 256 256 256 256 256 256 255 255 255 255 255 254 254 254 253 253 253 253 253 253 252 252 252 252 252 252 252 252 251 251 251
258 257 256 256 256 256 256 256 256 256 256 256 256 256 256 256 256 257 257 257 257 257 258 258 258 258 258 258 258 258 258 258 258 258 258 258 258 258 258 258 257 257 257 257 258 258 258 258 258 257 256 256 256 256 256 256 256 256 256 255 255 255 255 255 254 254 254 254 253 253 253 253 253 252 252 252 252 252 252 252 252 251 251 251 251
258 257 256 256 256 256 256 256 256 256 256 256 256 256 256 255 255 255 256 256 257 257 257 257 257 257 258 258 258 258 257 257 257 257 257 257 257 257 257 257 257 257 257 257 257 257 257 257 257 256 256 256 256 256 256 256 256 256 255 255 255 255 255 254 254 254 254 254 254 253 253 253 253 252 252 252 251 251 251 251 251 251 251 251 251
259 257 256 256 256 256 256 256 256 256 256 256 256 256 256 256 255 255 255 255 256 256 256 256 257 257 257 257 257 257 257 257 257 257 257 257 258 257 257 257 257 257 257 257 257 257 257 257 256 256 255 256 256 256 256 256 256 255 255 255 255 255 255 254 254 254 254 254 254 253 253 253 252 252 252 251 251 251 251 250 250 250 250 250 250
259 258 257 256 256 256 256 256 256 256 256 256 256 255 255 256 256 255 254 254 254 255 255 255 256 256 256 256 256 256 256 256 257 257 257 257 258 257 257 257 257 257 257 257 257 257 257 256 256 256 256 256 256 256 256 256 255 255 255 255 255 255 255 254 254 254 254 254 253 253 253 252 252 252 251 251 251 250 250 250 250 250 250 250 250
258 258 257 257 256 256 256 256 256 256 256 256 256 255 255 255 256 256 256 255 255 254 254 255 255 255 255 255 255 256 256 256 257 257 257 257 257 258 258 258 257 257 257 257 257 257 257 256 256 257 256 256 256 256 256 255 255 255 255 255 255 255 255 255 254 254 254 254 253 253 253 252 252 251 251 251 250 250 250 250 250 250 249 249 249
258 257 257 256 256 256 256 256 256 256 256 256 256 256 256 256 256 256 256 255 255 254 254 254 255 255 255 255 255 256 256 257 257 257 257 257 257 258 258 258 257 257 257 257 257 257 257 257 257 257 256 256 256 256 256 256 256 255 255 255 255 255 255 255 255 254 254 254 254 253 253 252 252 251 251 250 250 250 250 250 250 249 249 249 249
257 257 257 256 256 256 256 256 256 256 256 256 256 256 256 256 256 256 255 255 255 254 254 255 255 255 255 255 255 256 256 257 257 257 257 257 257 258 258 258 257 257 257 257 256 256 256 256 256 256 256 256 256 256 256 256 256 256 255 255 255 255 255 255 255 254 254 254 254 253 253 252 252 252 251 250 250 250 250 250 249 249 249 249 249
258 258 257 257 256 256 256 256 256 256 256 256 256 256 256 256 256 255 255 255 255 255 255 255 255 255 256 256 256 256 256 256 257 257 257 257 257 258 258 258 257 257 258 257 257 256 256 257 257 256 256 256 256 256 256 256 256 256 256 255 255 255 255 255 254 254 254 253 253 253 253 252 252 252 251 250 250 250 250 249 249 249 249 249 249
257 257 257 257 256 256 256 256 256 256 256 256 255 256 256 256 255 255 255 255 255 255 255 255 255 255 256 257 256 256 256 257 257 257 257 257 257 257 257 258 258 258 258 258 258 257 257 257 257 257 257 257 257 257 256 256 256 256 256 255 256 256 255 255 254 254 254 254 254 253 253 252 252 251 251 250 250 250 250 249 249 249 249 249 249
256 256 256 256 256 256 256 256 256 256 256 255 255 255 255 255 255 255 255 255 255 255 255 255 255 255 256 257 257 257 257 257 257 257 257 258 258 258 258 258 258 258 258 258 258 258 258 258 257 257 257 257 257 257 256 256 256 256 256 256 256 256 256 255 255 254 254 254 254 253 253 252 252 251 250 250 250 250 249 249 249 249 248 248 248
256 256 256 255 256 256 256 256 255 255 255 255 255 255 255 255 255 255 255 255 255 255 255 255 255 255 256 257 257 257 257 257 257 257 257 257 258 258 258 258 258 258 258 258 258 258 258 258 258 257 257 257 257 257 257 256 256 256 256 256 256 256 256 255 255 255 254 254 253 253 252 252 251 251 250 250 250 250 249 249 249 249 248 248 248
256 256 255 255 255 255 255 255 255 255 255 255 255 255 254 255 255 255 255 255 255 255 255 255 255 255 256 256 257 257 257 257 257 257 257 257 257 257 258 258 258 258 258 258 258 258 258 258 258 258 258 258 258 257 257 257 256 256 256 256 256 255 255 255 255 255 254 254 253 253 252 252 251 250 250 250 250 249 249 249 248 248 248 248 248
256 256 255 255 255 255 255 255 254 254 254 254 254 254 254 254 254 254 255 255 255 255 255 254 255 255 255 256 256 256 257 257 257 257 257 257 257 257 257 257 258 258 258 258 258 258 258 258 258 258 258 258 258 257 257 257 256 256 256 256 256 255 255 255 255 255 254 253 253 252 252 251 251 250 250 250 249 249 249 248 248 248 248 248 248
255 255 255 255 254 254 254 254 254 254 254 254 254 254 254 254 254 254 254 254 254 254 254 254 255 255 255 256 256 256 257 257 257 257 257 257 257 257 257 257 258 258 258 258 258 258 258 258 258 258 258 258 258 258 257 257 256 256 256 256 255 255 255 255 255 255 254 253 253 252 252 251 251 250 250 250 249 248 248 248 248 248 248 248 247
255 255 255 255 254 254 254 254 254 254 254 254 254 254 254 254 254 254 254 254 254 254 254 254 254 255 256 256 256 257 257 257 257 257 257 257 257 258 258 258 258 258 258 258 258 258 258 258 258 259 259 259 258 258 257 257 257 257 256 256 256 256 256 256 255 255 254 253 253 252 252 251 251 250 250 249 249 248 248 248 248 247 247 247 247
255 255 255 255 255 254 254 254 254 254 254 253 253 253 253 253 253 253 253 254 254 254 254 254 254 255 256 256 257 257 257 257 257 257 257 257 257 258 258 258 258 258 258 258 258 258 258 258 258 259 259 259 259 258 258 258 257 257 257 256 256 256 256 256 255 255 254 253 253 252 251 251 250 250 249 249 248 248 247 247 247 247 247 247 247
255 255 255 255 255 254 254 254 253 253 253 253 253 253 253 253 253 253 253 253 253 254 254 254 254 255 255 256 257 257 257 257 257 257 257 257 257 258 258 258 258 258 258 258 258 258 258 258 259 259 259 259 259 258 258 258 258 258 257 257 257 257 256 256 255 255 254 253 252 251 251 250 250 250 249 249 248 248 247 247 247 247 247 247 247
255 255 255 255 255 254 254 253 253 253 253 253 253 253 253 253 253 253 253 253 253 254 254 254 254 255 256 256 257 257 257 257 257 257 257 257 257 258 258 258 258 258 258 258 258 258 258 258 258 259 259 259 258 258 258 258 258 258 258 257 257 257 256 256 255 254 254 253 252 251 250 250 249 249 249 249 248 248 247 247 247 247 246 246 246
254 255 255 255 254 254 254 254 253 253 253 253 252 252 252 252 253 253 253 253 253 254 254 254 255 255 256 256 256 257 257 257 257 257 257 257 257 258 258 258 258 258 258 258 258 258 258 258 258 259 259 259 259 259 259 258 258 258 258 258 257 257 256 256 255 254 254 253 252 251 250 250 249 249 249 249 248 248 247 247 247 246 246 246 246
254 254 254 254 254 254 254 253 253 253 253 253 253 252 252 252 252 253 253 253 253 254 255 255 255 256 256 256 256 257 257 257 257 257 257 257 257 257 258 258 258 258 258 258 258 258 258 258 258 258 258 259 259 259 259 259 258 258 258 258 257 257 256 256 255 255 254 253 252 251 250 250 250 250 250 249 248 248 247 247 247 246 246 246 246
253 254 254 254 254 254 253 253 253 253 253 252 252 252 252 252 253 253 253 253 254 255 255 256 256 256 256 256 256 256 256 256 257 257 257 257 257 258 258 258 258 258 258 258 258 258 258 258 258 258 258 259 259 259 259 259 258 258 258 258 257 257 256 256 255 255 254 253 252 251 251 250 250 250 250 249 248 248 247 247 247 246 246 246 246
Wind_Speed
9 8 8 8 7 8 8 9 10 10 11 12 13 14 15 16 17 18 18 18 18 18 18 18 18 19 19 19 19 19 19 19 18 18 19 20 20 20 19 18 19 20 20 19 18 16 16 17 17 16 15 15 15 14 14 13 13 12 12 11 10 10 10 12 13 10 7 6 4 3 6 7 7 8 12 15 17 16 14 13 15 16 16 15 16
10 10 9 9 9 9 10 10 10 11 12 13 14 15 16 16 17 18 19 19 19 19 19 19 19 19 19 19 19 18 18 18 17 17 19 20 19 19 18 18 19 20 20 19 18 17 17 17 18 16 15 15 16 15 14 13 13 13 12 12 11 11 10 10 11 9 6 5 4 3 5 7 7 9 13 15 18 17 15 15 18 19 18 17 18
11 11 11 10 11 10 10 11 12 12 13 14 15 16 17 17 18 18 19 20 19 19 19 19 20 19 19 19 18 18 17 17 17 17 18 18 19 19 18 18 19 19 20 20 19 18 18 18 18 17 15 16 16 16 15 14 14 14 14 13 13 13 11 10 10 7 5 5 4 4 7 10 9 10 12 14 16 16 14 15 18 19 18 18 19
11 12 12 12 12 12 12 12 13 13 14 15 16 17 18 18 18 18 19 20 20 20 20 20 20 19 19 18 17 17 17 16 16 16 17 17 18 18 18 18 19 19 19 20 19 18 18 18 18 16 15 15 16 15 15 14 14 14 15 14 13 13 12 10 10 8 6 5 6 7 9 10 10 10 11 14 16 14 13 15 18 19 18 18 19
12 12 12 13 13 13 13 14 14 15 15 16 17 17 18 19 19 19 20 20 21 21 21 20 20 19 19 18 17 17 16 15 16 16 16 16 16 17 18 18 18 18 18 18 18 17 17 17 17 15 14 14 15 15 14 14 14 14 14 14 13 13 12 11 9 9 9 8 8 8 9 10 10 9 11 15 17 16 14 16 18 19 20 21 21
14 13 13 13 14 14 14 15 15 16 16 17 17 18 18 19 19 20 20 21 21 21 20 19 19 19 19 18 18 17 16 15 15 15 16 16 16 17 17 18 18 18 18 18 17 16 16 16 15 14 14 15 16 15 15 15 14 13 13 13 12 12 11 11 10 10 11 10 8 8 9 10 10 11 12 14 16 16 19 22 21 20 21 24 25
15 15 14 14 14 14 15 16 16 17 17 17 18 18 19 19 20 20 20 21 21 20 20 19 18 18 18 17 17 16 15 15 14 15 15 15 16 17 17 18 18 18 18 17 17 16 16 15 15 14 14 15 16 15 15 15 14 13 12 11 10 10 10 11 10 9 8 7 7 7 8 8 9 12 13 14 14 15 19 23 26 26 25 27 29
15 16 16 15 15 15 15 16 17 17 18 18 19 19 20 20 20 20 20 20 20 19 19 19 18 18 17 16 15 15 14 14 14 14 15 15 16 17 17 18 18 18 18 17 16 16 16 15 15 14 14 14 14 14 14 13 13 12 10 9 9 9 10 10 8 6 5 5 6 6 7 8 9 13 16 16 17 19 19 19 23 26 27 29 30
16 17 16 16 16 16 16 16 17 18 18 19 20 20 21 21 20 20 20 20 20 19 18 18 17 17 16 15 14 13 12 13 13 13 14 15 16 17 17 17 17 17 18 17 17 16 16 16 15 14 14 13 12 12 11 11 10 10 9 8 9 9 9 9 7 6 5 5 6 7 8 9 10 14 17 16 16 19 21 20 21 23 26 30 30
18 17 17 17 17 17 17 17 17 18 19 20 21 21 21 21 21 21 20 20 19 19 18 17 16 16 15 14 14 13 13 13 12 12 13 14 15 16 16 17 17 17 17 17 16 15 14 15 14 13 13 12 11 10 10 10 10 9 9 8 8 9 8 8 7 6 4 5 5 7 8 9 10 12 14 15 15 18 20 21 22 24 26 30 32
18 18 18 18 17 17 18 18 19 19 20 21 21 21 21 21 21 21 20 20 19 19 18 17 17 16 16 15 15 15 15 14 12 11 11 12 14 15 16 17 17 16 16 15 15 14 14 13 13 12 11 11 10 9 9 9 9 8 8 8 8 8 7 7 7 5 5 5 5 5 7 9 11 11 13 14 16 18 20 20 20 23 24 25 28
19 19 19 19 18 19 19 19 20 20 21 21 21 21 22 22 22 21 20 20 20 19 19 18 18 18 18 18 17 17 17 15 12 11 11 11 13 14 16 17 16 16 15 14 14 14 13 13 12 12 11 10 9 8 8 8 8 7 7 7 7 7 6 5 6 6 5 6 5 5 6 9 12 13 14 15 17 19 21 20 20 22 24 22 24
20 20 19 19 19 20 20 21 21 21 21 22 21 22 22 23 23 22 21 21 21 20 20 20 21 21 21 21 20 19 18 15 13 12 12 12 12 13 14 15 15 15 14 14 14 13 13 12 11 10 10 9 8 7 6 6 6 6 6 6 6 5 4 3 4 5 5 6 6 6 7 9 13 16 16 16 18 20 20 21 23 24 25 25 26
20 20 20 20 20 21 22 22 22 22 22 22 22 22 22 23 23 22 22 22 22 22 23 23 23 23 23 22 21 20 18 15 14 13 12 12 12 12 13 14 14 14 14 13 13 12 11 11 10 9 8 7 6 6 5 4 4 5 5 5 5 5 4 3 4 5 6 7 8 10 10 11 14 17 17 17 19 18 18 23 27 27 28 28 29
20 21 21 21 21 22 23 23 23 22 22 22 22 21 22 22 22 22 22 22 24 24 24 24 24 23 23 23 23 21 18 16 15 13 11 12 12 12 14 14 14 14 13 12 11 10 9 8 8 8 7 6 6 5 4 3 3 3 4 5 5 5 5 6 6 6 8 10 12 15 15 15 17 19 19 19 18 18 21 25 28 29 29 29 29
21 22 22 22 23 24 25 25 24 24 23 22 21 20 20 21 21 21 22 23 24 25 24 23 24 24 24 24 24 21 18 16 16 13 11 11 12 13 14 14 14 14 12 11 10 8 7 7 6 6 6 6 6 5 4 3 2 2 5 6 7 7 7 7 6 6 8 10 13 15 16 16 17 17 18 18 18 20 23 26 27 27 26 28 29
21 22 23 23 24 25 26 26 26 25 24 23 22 19 18 18 18 20 22 23 24 24 23 23 23 25 25 24 23 21 18 15 14 13 12 11 12 13 14 14 13 13 11 10 8 7 6 5 5 5 5 5 5 5 3 2 1 5 7 8 9 9 10 9 8 7 8 10 11 13 14 14 15 17 18 18 18 20 23 25 25 23 22 23 24
21 22 23 24 25 25 27 27 27 27 25 25 24 21 17 15 17 19 22 23 24 23 22 22 23 24 25 23 21 21 19 15 12 12 12 10 11 13 13 14 13 12 10 9 7 6 5 4 4 4 3 4 5 4 1 4 7 9 10 10 11 12 12 12 13 12 12 13 14 14 14 15 15 16 16 16 17 17 20 22 21 20 20 20 21
22 23 23 24 25 26 27 27 27 27 26 26 26 24 21 18 18 20 22 23 23 22 21 21 22 24 24 22 20 20 19 16 12 11 11 9 9 11 12 12 13 11 9 8 7 5 4 3 3 2 2 4 5 3 2 7 10 11 11 11 12 14 13 12 14 16 18 19 19 18 17 16 16 16 16 16 16 15 17 19 18 19 20 21 22
22 23 23 24 24 25 26 27 26 27 27 26 26 26 25 23 21 20 21 22 22 20 20 21 22 22 22 21 19 19 19 17 13 11 11 8 7 9 10 10 10 10 8 6 5 4 3 2 2 2 2 3 5 4 1 7 10 9 10 11 12 13 12 13 16 18 21 23 23 22 21 19 19 20 19 19 18 17 18 20 20 19 20 22 23
22 23 23 24 25 24 25 26 25 25 26 27 27 26 25 25 24 22 21 21 20 19 18 19 20 21 21 20 18 18 19 17 13 11 11 8 6 7 8 9 8 8 7 5 3 1 1 1 0 2 2 4 6 4 1 6 9 10 10 10 11 11 13 17 20 21 23 24 23 23 23 22 21 21 20 20 19 19 21 22 22 22 22 23 25
23 24 24 24 24 24 24 25 25 26 26 27 28 26 24 24 24 23 22 22 21 18 17 18 19 20 20 19 17 17 19 19 15 12 11 9 8 8 7 7 7 6 5 5 4 3 4 3 3 2 3 4 5 3 2 8 12 13 12 10 10 13 17 21 22 22 23 23 22 23 23 23 23 23 21 20 20 21 22 24 24 24 26 28 28
24 24 24 23 23 23 24 25 25 26 27 28 28 27 25 24 23 23 24 23 21 19 18 18 18 20 20 19 17 17 19 20 18 15 12 10 9 9 7 6 6 4 2 3 4 4 4 3 3 3 3 4 5 4 8 14 15 15 14 13 14 18 20 20 20 21 21 21 21 23 24 24 24 24 23 22 22 22 23 25 27 28 31 33 32
24 24 23 23 23 24 24 25 25 26 27 27 27 26 26 25 23 23 24 24 22 20 19 18 19 20 20 20 19 19 20 20 19 16 13 9 8 8 6 5 4 1 2 1 3 4 4 4 3 3 3 4 6 8 11 14 14 15 15 15 16 17 18 18 19 19 20 20 21 23 24 24 24 24 25 24 25 26 27 28 30 31 31 32 31
24 24 23 23 24 24 25 24 24 25 27 27 26 26 26 25 24 24 24 24 23 22 20 19 19 19 20 20 20 20 21 21 20 18 14 10 8 7 5 3 3 4 6 5 5 5 5 5 5 5 4 5 6 7 9 10 11 13 13 14 15 15 15 16 17 17 18 20 22 23 25 25 25 25 26 26 27 29 30 30 30 30 30 30 31
25 24 24 24 24 25 25 24 24 24 24 24 24 25 26 26 25 24 24 23 22 21 20 19 19 19 18 19 21 21 21 21 21 19 17 14 11 10 8 8 8 8 8 8 7 6 5 5 6 6 7 6 7 7 8 8 9 10 11 12 13 13 14 15 16 17 19 21 22 24 25 25 25 25 26 27 28 29 29 30 31 30 30 30 32
26 25 25 25 25 25 25 25 24 24 23 23 23 24 24 24 24 24 24 23 21 20 20 21 20 19 18 18 20 21 21 21 21 21 19 18 15 13 12 11 11 10 9 8 7 5 5 6 7 7 7 6 7 7 8 8 8 10 11 12 14 15 16 17 18 18 20 22 23 24 24 24 25 26 26 27 29 29 28 28 30 31 30 30 31
26 26 25 26 26 25 25 25 25 23 23 23 23 22 22 23 23 22 22 22 22 21 22 22 21 20 19 19 20 21 21 22 23 22 21 20 17 16 14 13 11 8 8 8 7 6 8 8 8 8 6 6 7 8 9 10 12 13 14 15 16 17 17 18 19 20 21 22 23 24 25 25 26 27 28 29 29 28 27 27 28 30 30 29 29
26 26 26 26 26 25 25 24 23 23 23 23 22 21 21 22 22 21 20 20 21 22 22 22 20 20 19 19 20 22 22 23 23 22 20 18 17 16 14 12 10 8 8 7 7 7 8 8 7 7 7 8 10 10 11 12 12 13 15 15 16 17 18 19 21 22 22 22 23 24 25 26 28 29 29 29 29 28 27 27 28 30 30 29 29
26 26 26 26 26 26 25 23 22 22 24 24 23 21 19 19 20 20 19 19 19 19 20 20 19 19 19 19 19 20 21 21 20 19 17 16 15 14 12 10 9 9 8 8 8 8 8 8 7 7 7 8 10 11 11 12 13 15 15 15 16 18 18 19 21 22 22 22 22 23 24 26 29 30 29 29 30 30 29 28 29 29 30 30 31
27 26 26 27 27 27 26 24 22 23 25 25 25 23 21 18 17 18 19 18 17 17 18 18 18 19 20 19 18 17 17 17 17 16 16 15 13 12 11 11 10 10 9 9 9 8 8 8 8 7 7 8 10 11 12 13 15 16 17 18 18 18 19 20 20 20 20 21 22 24 26 27 28 28 28 29 30 31 31 30 30 29 29 29 30
29 27 27 26 26 26 26 25 24 25 26 26 25 25 23 20 17 16 17 17 17 17 17 17 18 18 18 17 17 16 16 15 15 14 13 13 12 12 12 11 10 10 10 9 9 9 9 9 8 7 7 9 11 12 13 14 16 17 18 20 20 20 20 21 19 18 19 22 24 26 27 27 27 27 28 29 30 31 32 31 30 30 30 30 30
29 28 27 26 26 25 25 25 26 27 28 27 26 25 24 23 21 18 16 16 15 15 15 16 17 17 16 16 16 16 16 15 13 12 12 12 12 11 11 11 10 10 10 9 10 10 9 8 8 8 9 11 12 13 15 16 17 18 19 20 22 23 21 19 17 18 20 22 25 26 27 27 28 28 29 29 30 31 32 32 31 30 29 30 31
27 26 27 28 27 25 24 26 27 28 28 28 27 25 24 23 23 22 20 19 16 15 14 15 16 16 16 15 15 15 15 15 13 12 11 11 12 11 11 11 10 10 10 10 10 10 9 9 10 10 11 12 14 15 16 17 18 19 20 21 23 22 20 18 18 20 22 23 24 26 27 27 28 28 29 30 30 31 31 31 31 30 29 30 31
24 24 25 27 27 25 24 26 27 27 27 26 25 23 22 21 22 22 22 22 20 19 17 16 16 16 17 16 15 15 15 15 14 13 12 12 12 12 11 11 10 10 10 10 10 10 9 10 10 11 12 13 14 16 17 18 19 20 21 22 21 20 19 20 21 22 23 23 24 25 26 27 28 28 29 30 30 31 32 31 30 30 30 30 31
23 24 24 24 24 24 24 26 27 26 25 25 23 21 20 20 20 20 19 19 19 19 18 18 17 17 18 18 17 16 15 14 13 12 12 12 12 11 11 10 10 9 9 9 9 10 10 11 11 12 13 15 16 17 18 19 20 21 21 20 20 20 21 22 22 23 23 24 25 26 26 27 28 27 27 29 30 31 31 32 31 30 30 30 31
24 25 25 24 23 23 24 25 25 24 23 23 22 20 19 19 19 19 18 17 17 17 18 19 19 19 18 18 18 17 15 13 12 12 12 12 11 11 11 10 10 10 10 9 9 11 12 13 14 15 16 17 18 19 20 21 22 22 20 19 19 21 22 23 23 23 24 25 26 27 27 27 28 27 26 28 30 31 31 31 31 31 31 31 31
25 25 24 23 23 23 24 24 23 22 22 22 21 21 20 19 18 18 17 17 17 17 17 18 20 21 21 19 18 17 15 14 13 13 12 12 12 11 11 10 11 11 11 10 11 12 14 15 15 16 17 18 19 20 20 21 20 19 18 18 20 21 22 23 24 24 25 26 27 27 28 28 29 28 27 28 30 31 31 31 31 31 32 31 30
24 23 23 22 22 23 24 24 23 23 22 22 21 21 20 19 19 18 18 17 17 17 17 18 19 20 20 19 18 17 16 15 14 13 12 12 12 11 11 11 11 11 11 11 11 13 14 15 16 17 18 19 19 20 19 19 18 18 18 20 22 23 23 24 24 25 25 27 28 28 29 29 29 29 29 29 31 32 32 32 32 31 31 32 31
23 23 22 21 21 22 22 23 23 23 23 22 21 21 21 21 20 19 19 19 18 16 16 16 17 17 18 18 18 17 16 15 14 12 12 12 12 11 11 11 11 11 11 12 12 13 15 16 16 17 18 19 19 19 18 18 18 20 21 23 23 24 24 24 25 26 27 28 29 29 30 30 30 30 30 31 32 32 32 33 33 32 31 33 33
23 23 22 21 21 21 21 22 22 22 22 22 21 21 22 21 20 19 19 19 19 17 15 15 16 16 16 16 15 14 14 13 12 12 11 11 11 10 10 10 10 11 12 13 13 14 16 17 17 18 18 19 19 18 18 18 19 21 23 23 24 25 26 26 26 27 28 29 30 31 31 31 31 31 32 33 33 32 32 33 33 33 33 33 33
23 23 22 21 20 20 21 21 21 21 20 20 20 20 21 20 20 19 19 19 19 18 16 15 16 16 16 15 13 12 12 12 12 12 11 11 11 12 11 11 12 12 13 13 14 15 16 17 18 18 18 19 19 18 18 19 19 21 22 24 24 26 27 27 28 28 29 30 31 32 32 32 32 31 32 33 33 33 33 33 33 33 33 34 33
23 23 22 21 20 20 20 20 20 20 20 19 19 19 19 19 19 19 18 18 19 19 18 17 17 16 16 15 14 13 13 13 13 13 13 13 13 13 13 13 13 13 14 14 15 15 17 18 18 18 18 18 18 19 19 20 20 21 23 24 26 27 28 29 29 29 29 30 32 32 32 32 32 32 32 33 32 33 33 33 33 34 33 33 33
23 22 22 20 19 18 19 19 19 19 19 19 18 18 18 19 19 19 19 18 18 18 18 17 17 17 16 15 15 14 14 14 13 13 13 13 13 13 13 13 13 14 14 15 15 15 17 18 18 19 19 18 18 19 19 20 21 22 23 25 26 27 28 29 29 29 29 30 31 32 33 33 32 33 33 33 32 32 33 33 33 33 33 33 33
22 22 21 20 18 18 17 18 18 18 18 18 18 18 18 18 19 19 19 19 19 18 17 17 16 16 16 15 15 14 14 13 13 13 13 13 13 13 13 13 14 14 15 15 15 16 17 18 18 19 19 18 18 19 20 20 21 22 23 25 26 28 28 28 28 28 29 29 31 32 32 33 33 33 34 33 32 32 33 34 34 33 34 34 33
20 21 20 19 18 18 17 17 17 17 18 18 18 18 18 18 18 18 18 18 18 19 18 17 16 16 15 14 14 14 14 14 14 14 14 14 14 14 13 14 14 15 15 16 16 16 17 17 18 19 19 19 19 20 20 21 22 22 23 25 26 27 28 27 27 28 28 29 30 31 32 33 34 34 34 34 33 33 34 35 34 34 34 34 34
20 19 19 18 18 17 17 17 17 17 17 18 18 18 19 18 17 17 17 17 17 18 18 18 17 16 15 14 14 14 14 14 14 14 14 14 14 14 14 14 15 15 16 16 16 17 17 17 18 19 20 20 21 21 21 22 22 23 24 25 26 27 27 27 27 28 28 28 29 31 31 33 35 36 35 35 34 34 35 35 35 35 34 34 35
18 18 18 17 17 16 16 16 16 17 17 17 17 17 18 18 18 17 17 17 17 17 17 17 17 16 15 14 14 14 14 14 14 14 15 15 15 14 14 15 15 15 16 17 17 17 17 18 18 19 20 20 21 22 22 22 23 23 24 25 25 26 26 26 27 28 28 28 29 30 32 34 36 36 37 37 36 36 36 36 35 36 35 35 35
17 17 17 16 16 16 16 16 16 16 17 17 17 16 16 17 18 18 18 18 18 18 17 17 16 15 14 14 14 14 14 15 15 15 15 14 14 14 14 15 15 16 16 17 17 17 17 18 18 19 20 20 22 22 23 23 23 24 24 25 25 25 25 26 27 28 28 28 29 30 32 34 36 37 37 38 37 36 36 36 36 36 35 35 36
16 16 16 15 15 15 15 15 15 16 16 16 17 17 16 16 17 18 18 18 18 18 17 16 16 15 15 14 14 14 15 15 15 15 14 14 14 14 15 16 16 16 17 17 17 17 18 18 18 19 19 20 22 22 23 23 24 24 25 25 25 25 26 26 27 27 27 28 30 31 32 34 36 37 38 38 37 36 37 37 36 36 35 35 36
16 16 15 14 14 14 14 14 15 16 16 16 17 18 18 18 17 17 18 17 17 16 16 16 15 15 14 14 14 15 15 15 15 15 15 14 14 15 15 16 17 17 18 18 18 18 19 18 19 19 20 21 22 23 23 23 24 24 25 25 26 26 27 27 27 28 28 28 30 31 32 34 35 36 37 38 37 36 37 37 37 36 36 36 36
Wind_Direction
197 197 196 196 193 186 181 178 178 176 172 170 167 162 161 161 159 157 154 151 151 149 145 143 141 139 137 136 135 134 134 133 132 133 132 128 126 125 126 128 124 121 122 121 122 124 124 123 121 121 125 124 120 118 116 114 113 108 103 99 95 96 103 111 115 110 85 58 58 42 9 11 24 4 346 355 5 3 1 6 8 2 358 359 2
194 194 193 192 188 183 180 177 174 173 169 167 165 162 160 159 159 159 156 154 153 152 149 146 145 143 141 139 137 136 134 132 132 132 131 129 128 126 127 128 125 123 123 121 121 122 123 122 119 118 121 120 115 112 109 108 109 107 101 99 95 92 99 111 115 119 105 63 41 43 21 10 14 6 354 352 354 353 357 3 1 356 355 358 358
195 195 191 186 184 181 177 174 172 170 168 166 164 163 162 159 160 160 157 155 155 154 152 149 147 146 143 140 138 137 135 133 133 133 132 131 130 128 128 129 127 126 124 123 122 124 125 122 119 119 122 120 115 111 109 106 105 104 99 97 97 92 93 105 109 109 104 74 36 28 24 14 10 5 354 343 342 351 357 353 350 350 353 354 351
197 194 189 183 180 177 175 173 171 170 168 167 165 164 163 161 160 160 156 154 153 151 150 150 148 147 143 140 139 137 137 136 136 136 135 134 132 130 130 130 129 128 127 126 127 128 128 124 121 122 122 120 114 111 110 108 105 104 101 98 98 95 91 93 96 96 92 71 40 33 20 7 3 0 347 335 339 355 356 342 342 348 351 349 344
196 193 187 181 177 175 175 173 172 172 170 168 166 165 163 161 161 159 156 152 150 148 147 148 148 147 145 143 141 139 139 139 139 139 138 137 136 134 133 132 130 129 128 129 130 130 129 125 123 122 122 118 112 108 106 105 104 104 103 100 97 95 90 84 84 81 68 48 33 27 15 3 354 345 341 337 341 353 350 337 342 349 347 345 344
193 189 185 180 177 175 175 174 173 173 171 168 166 165 163 161 159 157 154 151 148 148 147 147 146 145 144 143 143 142 142 142 142 141 141 141 140 138 136 134 132 131 130 130 130 129 127 124 121 120 121 117 112 111 108 105 103 101 101 102 99 94 86 75 67 60 48 34 26 12 359 1 351 335 341 344 342 348 345 338 344 350 346 343 344
190 186 183 180 178 176 175 175 174 172 171 169 166 164 162 159 156 153 151 150 148 147 147 146 145 144 143 143 144 145 145 145 145 144 144 144 143 141 138 136 135 133 132 131 129 127 123 121 120 119 120 118 115 114 111 108 105 99 96 97 96 92 85 72 59 50 38 25 22 4 345 354 351 334 342 351 346 348 349 342 340 344 346 342 340
189 185 182 179 177 177 175 174 174 172 170 168 165 163 159 157 153 151 150 149 148 147 147 146 144 143 143 143 144 144 145 145 144 146 146 145 144 142 139 139 137 135 132 130 128 126 122 119 118 118 118 117 117 116 114 111 107 100 93 91 90 89 87 80 66 58 54 27 13 1 340 344 347 338 345 357 353 347 349 343 333 334 338 337 338
188 183 180 177 176 177 175 174 173 172 169 165 162 159 157 155 153 151 151 150 148 148 148 147 144 142 141 141 140 138 139 139 141 145 147 146 145 142 140 139 137 135 133 132 129 127 125 122 122 123 122 121 119 116 111 108 104 98 92 87 85 85 88 87 71 55 59 41 11 355 344 346 349 343 347 356 349 336 338 338 330 329 331 330 334
186 182 177 176 177 177 175 174 172 170 166 162 158 156 155 154 152 151 150 149 147 147 146 145 143 140 138 135 133 132 132 131 133 141 146 148 147 144 141 139 137 137 135 132 128 125 123 124 125 127 127 125 123 116 109 105 99 94 90 84 80 80 81 81 67 42 33 33 10 350 343 343 342 340 341 343 336 329 333 334 330 329 332 330 331
184 182 179 178 178 176 174 173 171 167 164 160 157 155 155 153 151 150 149 147 145 145 144 142 139 137 133 131 130 129 124 120 124 136 144 148 148 145 142 140 138 137 134 130 127 124 123 123 122 124 125 124 122 116 112 107 100 95 88 79 78 74 61 53 48 33 14 7 356 344 336 329 330 336 338 336 333 331 331 331 327 326 332 331 324
184 181 181 180 177 176 175 171 169 166 163 160 157 156 155 153 151 148 146 145 145 144 143 139 135 132 128 124 121 116 113 114 123 135 140 144 147 145 143 141 139 136 132 130 127 125 124 122 121 124 126 126 124 120 116 111 104 100 90 79 78 75 65 44 24 15 4 349 340 335 323 315 322 334 339 337 332 329 327 325 322 319 321 320 309
186 182 180 179 177 175 174 170 167 165 163 161 158 157 155 152 151 149 146 145 144 143 141 136 132 129 124 119 114 112 114 121 127 132 135 140 146 146 142 139 136 134 132 132 129 127 126 124 124 126 127 131 132 125 120 115 107 99 86 76 70 65 67 47 9 355 351 345 335 332 329 321 323 333 343 339 327 323 321 316 315 313 311 310 306
185 182 178 178 176 175 172 169 166 164 162 161 158 156 155 152 150 150 148 147 145 143 140 136 133 129 125 120 116 116 119 122 123 126 132 137 141 141 138 134 133 131 130 131 129 127 126 125 125 126 129 137 140 133 130 125 109 91 73 58 48 44 32 4 347 341 348 349 333 330 336 330 322 328 338 335 322 316 312 308 309 309 307 307 307
184 181 178 178 177 175 172 169 166 163 161 159 156 155 154 151 151 150 149 148 147 145 143 140 135 131 127 123 118 117 118 120 121 125 132 136 137 138 136 133 132 130 127 127 125 122 122 123 125 129 134 142 150 155 159 153 124 83 53 31 16 14 3 349 339 333 340 343 330 327 332 329 326 327 329 328 320 311 305 302 303 306 306 307 308
182 181 179 179 178 177 174 171 167 164 161 156 154 156 155 151 150 151 149 149 150 149 147 144 139 135 131 126 121 119 121 121 119 119 125 134 138 138 135 133 130 127 124 123 121 118 118 120 127 137 140 150 164 170 177 175 149 20 4 357 350 348 350 348 336 317 315 320 320 319 320 320 317 312 309 310 307 302 298 297 301 306 307 306 306
182 182 181 181 181 179 177 174 168 164 162 158 155 155 155 153 153 153 152 151 153 154 151 148 145 140 136 132 126 125 126 125 119 111 111 126 138 137 134 131 127 123 121 119 116 118 122 123 133 142 142 155 163 156 161 198 320 339 336 334 329 332 342 341 329 313 302 304 308 307 304 301 295 289 289 291 291 291 291 293 301 307 305 304 306
184 182 182 183 183 181 179 176 170 166 165 162 158 156 156 156 156 157 157 155 155 157 155 152 149 145 142 138 133 131 131 131 127 113 104 113 132 136 132 129 124 117 116 117 115 117 121 123 132 136 134 149 149 129 164 270 301 317 320 319 315 320 333 330 320 320 317 312 313 311 307 305 300 296 296 294 293 292 290 295 304 305 299 297 299
186 184 183 183 183 182 180 178 173 170 168 165 163 162 161 160 158 159 160 157 156 157 157 156 154 151 150 147 143 139 137 137 136 125 110 107 121 130 130 127 124 118 112 113 111 110 115 122 132 135 137 158 156 135 240 268 288 304 305 300 300 309 322 319 313 318 320 318 319 318 316 315 313 311 311 310 309 306 301 304 308 303 299 298 298
187 185 184 183 183 182 181 180 177 174 172 169 167 166 165 163 161 160 160 158 156 156 159 161 160 158 157 156 151 147 146 145 142 133 123 115 121 131 127 121 121 117 108 103 93 93 111 122 140 167 177 178 165 141 294 279 273 274 275 283 297 309 314 310 309 313 315 315 317 317 318 320 320 320 320 319 318 315 311 310 309 306 302 300 299
185 183 182 182 183 182 181 181 180 177 174 172 168 166 166 167 166 164 161 157 155 157 160 164 164 164 165 163 159 156 155 155 153 143 134 131 137 137 122 112 115 110 105 108 91 63 145 150 187 203 211 210 186 148 28 288 270 273 285 301 312 308 299 300 306 309 309 311 313 315 318 320 321 322 322 321 319 315 310 308 307 305 302 298 298
184 183 181 181 181 181 180 180 179 177 176 174 170 167 165 166 165 164 162 159 157 159 161 163 166 168 170 170 167 164 162 162 162 153 140 140 149 143 120 109 116 114 116 142 171 204 214 240 276 252 231 223 195 155 283 269 270 287 301 305 297 287 290 299 305 307 308 310 312 313 317 320 321 322 321 319 316 310 305 303 302 302 301 299 297
184 182 181 180 180 180 179 178 178 177 176 176 173 169 165 164 163 164 164 162 160 159 159 162 166 169 172 174 173 169 166 166 167 158 144 143 156 155 138 124 131 124 110 154 185 214 237 260 272 260 252 229 195 207 259 266 274 289 296 292 288 291 297 303 306 308 310 312 312 313 317 319 319 318 317 315 311 306 301 299 299 298 299 298 296
181 179 178 178 177 177 176 176 177 176 175 176 174 169 166 165 165 166 168 166 163 160 161 165 166 166 170 174 175 173 170 171 175 171 158 150 160 170 165 150 148 137 347 288 218 248 276 293 293 284 276 249 229 239 258 269 282 291 294 296 297 301 305 307 309 312 312 312 312 312 314 317 317 315 314 311 308 304 301 298 298 299 299 299 298
177 175 174 175 175 175 174 173 174 174 175 176 174 171 170 169 168 169 171 170 167 164 163 166 167 166 169 174 176 178 178 178 182 185 182 178 184 201 218 228 257 306 322 315 295 291 297 305 307 302 295 282 268 267 271 278 286 292 296 300 304 307 310 312 314 314 311 311 311 310 312 316 315 312 311 309 306 306 307 306 306 308 308 307 304
173 173 172 172 173 173 171 170 171 172 173 176 176 175 175 174 173 173 173 173 171 169 168 169 168 169 173 177 181 184 185 186 189 194 200 205 211 225 244 265 282 299 308 304 295 294 297 305 309 306 305 305 300 298 299 299 299 303 308 310 314 318 320 320 320 317 312 311 310 309 311 314 313 312 313 312 311 313 315 314 313 313 313 311 307
173 172 171 171 171 171 170 168 168 170 172 175 176 175 176 178 177 175 176 175 174 173 173 174 174 175 176 180 187 191 192 195 197 200 207 215 223 234 249 265 280 289 291 286 285 296 310 314 313 312 313 312 311 312 315 317 319 323 326 329 330 330 329 327 323 318 315 313 311 311 313 315 315 316 316 315 314 316 318 316 313 312 313 312 307
173 172 171 170 169 170 171 168 166 168 171 174 173 173 176 179 178 177 180 181 180 179 179 179 181 182 181 183 190 194 199 204 207 208 213 219 227 239 252 265 272 272 269 273 284 300 310 312 313 318 324 326 327 331 333 334 335 335 335 334 332 329 328 324 320 317 317 316 314 314 316 316 316 316 315 313 313 316 319 317 312 310 311 311 304
173 172 171 169 169 169 169 168 167 167 168 169 170 171 175 179 179 178 181 184 187 188 187 185 186 187 187 190 195 198 203 210 215 218 221 226 233 244 252 258 261 259 264 273 281 290 299 305 315 326 334 333 331 332 332 330 329 327 325 325 324 323 322 319 316 317 318 316 313 313 314 313 313 313 313 312 312 315 318 315 310 309 309 306 300
172 172 171 170 170 169 167 167 168 168 168 168 168 168 170 176 182 183 182 184 189 192 192 191 191 192 193 198 204 209 213 216 219 222 225 228 235 242 246 249 254 259 266 274 279 286 295 304 315 327 331 325 320 319 320 319 317 318 320 320 319 318 317 314 313 314 313 310 308 309 309 309 310 312 313 311 311 313 314 311 309 307 306 303 299
171 172 173 173 172 170 168 168 169 169 170 171 170 167 166 170 179 185 186 184 186 190 191 192 193 196 199 202 205 211 215 217 217 219 221 223 226 230 236 243 248 253 260 266 274 285 295 302 310 318 317 309 306 309 311 312 314 316 318 317 316 315 313 312 312 310 307 305 305 306 308 308 310 311 311 310 309 310 311 310 309 306 303 300 297
175 175 176 176 173 171 171 171 170 171 172 172 172 171 168 164 166 176 186 188 188 188 190 191 193 197 203 206 207 206 205 206 209 211 212 213 216 222 231 237 239 246 255 263 273 285 293 297 302 307 303 298 300 304 308 310 312 314 314 313 314 313 312 312 312 308 304 303 305 307 309 311 311 312 311 310 308 308 308 308 307 305 303 300 296
182 178 177 175 173 173 174 174 173 173 174 174 175 175 173 169 164 165 173 183 189 190 191 193 195 197 198 203 208 208 203 202 204 205 205 209 215 221 228 232 237 246 256 265 276 285 290 292 296 299 298 296 300 305 308 309 311 312 311 310 309 310 312 314 312 306 303 303 306 308 310 311 311 310 309 308 306 304 304 304 304 303 302 299 298
185 181 179 178 176 176 177 177 176 176 177 178 178 178 178 177 174 169 167 171 177 183 187 191 195 196 197 198 202 205 203 202 204 205 206 211 217 221 225 231 238 249 259 268 277 283 286 286 288 291 294 297 302 306 308 309 309 309 308 308 308 309 312 312 307 304 304 304 304 305 307 308 307 305 304 304 303 301 300 300 301 301 300 299 299
183 183 182 181 179 178 178 178 178 178 178 180 180 178 179 182 182 179 176 175 175 178 183 186 189 192 195 196 198 200 201 202 204 206 209 214 219 222 228 235 243 252 263 271 276 282 284 285 289 294 298 301 304 305 305 306 306 306 307 308 309 309 308 306 304 304 304 304 303 303 304 304 303 302 301 300 300 298 298 299 299 299 298 298 298
184 184 181 180 181 181 180 179 180 179 179 179 178 177 178 182 183 183 183 182 180 181 184 186 188 191 195 198 201 203 204 203 204 207 210 216 222 227 232 241 249 257 265 273 282 290 294 296 300 303 304 304 305 306 306 307 306 307 307 307 306 305 305 305 305 306 306 305 304 304 304 303 303 303 302 299 298 297 296 297 298 298 297 297 297
188 185 180 180 184 183 180 179 180 180 178 177 175 175 177 181 182 181 181 182 182 184 187 190 192 194 197 201 204 206 207 207 208 211 214 219 227 234 239 247 255 260 263 269 277 284 289 294 298 300 301 303 305 305 307 307 307 307 305 301 298 299 301 304 306 306 306 306 306 306 306 305 305 306 303 299 298 297 296 297 297 297 297 297 297
192 188 184 184 185 182 180 179 179 179 178 176 175 176 176 176 177 179 180 180 181 185 190 194 197 200 202 202 203 204 208 211 213 216 220 225 232 239 246 252 257 261 265 268 270 274 280 287 291 294 297 300 302 303 305 306 306 306 304 301 299 300 301 302 303 304 303 304 305 306 306 306 305 305 302 297 295 295 296 296 296 296 297 297 297
190 188 186 186 184 182 182 180 178 177 177 176 177 177 176 174 175 176 177 177 179 185 192 196 200 205 207 205 202 204 208 212 215 219 223 229 236 243 250 256 259 264 270 275 277 280 285 289 293 296 298 299 301 303 303 304 305 305 303 301 300 300 301 302 303 303 304 304 305 305 304 303 302 302 299 294 292 293 294 295 295 295 295 296 296
185 185 185 185 183 183 183 181 179 179 178 178 179 180 179 178 177 177 177 177 177 183 194 197 198 201 206 206 206 210 213 214 218 222 228 234 241 244 248 255 262 268 275 282 286 289 292 296 298 300 300 301 302 303 302 300 300 300 299 298 298 299 302 303 304 304 305 304 304 303 302 301 301 300 296 294 293 294 293 294 295 295 294 294 295
184 181 181 182 183 183 182 180 180 181 180 181 182 182 183 183 181 180 182 182 181 183 191 194 192 196 204 208 209 212 216 217 220 226 232 240 247 252 254 259 267 274 280 286 290 292 294 297 298 299 300 301 301 301 300 297 294 293 295 297 298 300 302 303 303 304 304 303 302 302 301 300 300 297 295 296 296 295 294 293 294 295 295 295 295
183 180 179 179 182 182 180 179 181 181 181 182 184 185 186 186 185 184 186 186 186 187 188 189 191 198 206 210 209 209 213 219 223 227 233 241 251 260 266 269 274 280 284 288 291 293 294 295 296 298 299 300 300 299 298 295 294 294 295 297 298 299 300 302 302 302 302 301 300 300 300 300 298 296 295 296 296 295 295 295 295 295 295 295 295
184 182 180 179 181 182 181 180 181 181 181 183 185 186 187 186 186 187 189 189 190 191 190 191 195 201 205 210 213 214 218 223 228 233 239 246 253 260 266 270 275 281 284 286 289 292 292 294 296 298 299 299 299 298 296 295 295 295 295 297 297 297 298 299 301 302 301 300 299 299 299 298 297 296 295 296 295 295 295 295 295 295 295 294 295
184 182 180 178 178 179 181 181 182 183 183 184 185 187 188 188 187 189 190 190 191 193 194 197 202 206 207 209 214 219 224 229 234 241 247 253 257 261 265 270 275 279 282 286 289 291 292 293 296 297 298 299 299 297 296 295 294 294 295 295 295 296 297 299 301 302 302 299 298 298 299 298 297 296 295 296 296 295 295 295 295 295 295 295 295
184 182 180 177 176 177 179 181 184 184 184 184 185 187 189 190 190 191 193 193 193 194 195 199 206 211 212 213 217 224 231 237 242 248 253 257 261 264 266 271 276 280 284 287 290 291 291 293 295 296 298 300 300 298 297 296 295 295 295 295 294 296 299 302 303 303 300 298 297 298 298 297 297 296 296 297 297 295 294 294 294 294 294 294 294
184 183 181 179 179 180 180 182 185 185 185 186 188 188 190 192 194 195 197 198 199 199 199 201 207 213 217 219 221 227 235 242 248 254 259 262 265 268 271 274 278 281 284 286 288 289 290 292 294 296 298 301 300 299 299 298 298 298 298 297 297 299 303 305 304 301 299 297 297 297 296 296 297 297 297 297 297 295 294 294 294 293 293 294 294
184 183 183 183 183 183 184 185 186 188 188 190 191 194 195 195 196 198 199 200 203 205 205 207 212 217 223 227 231 235 241 246 251 256 260 263 266 269 272 276 280 283 285 287 289 290 292 294 295 296 297 298 299 300 301 302 302 301 300 300 301 302 304 305 302 300 299 298 297 296 296 296 296 297 297 297 296 295 294 294 294 294 294 294 294
184 184 184 186 187 187 188 188 189 190 191 191 194 199 201 199 199 201 202 202 205 207 209 212 216 221 226 232 237 242 247 251 255 258 260 263 266 270 273 277 280 283 285 287 289 292 294 296 296 295 296 297 298 300 302 303 303 303 303 303 303 304 305 303 301 299 299 298 296 295 294 294 294 295 296 296 295 295 295 295 295 295 295 295 295
185 186 186 188 191 192 193 194 194 194 194 194 195 198 202 203 205 206 207 208 211 212 214 217 221 226 231 236 241 246 251 254 258 261 263 265 269 272 276 280 281 283 284 287 290 293 295 295 295 295 296 297 299 301 302 303 305 305 305 306 307 306 304 302 299 298 298 297 295 295 294 293 293 294 295 295 296 296 295 295 295 295 295 295 295
188 191 192 193 195 197 199 200 199 199 199 200 199 200 202 205 207 209 211 214 216 219 222 225 228 232 237 242 246 250 254 257 262 265 268 270 272 276 279 282 284 285 287 289 292 294 295 296 296 297 298 299 300 301 302 304 305 306 307 307 307 305 303 302 300 299 298 297 296 295 294 293 294 295 295 296 297 296 295 295 295 295 295 294 294
190 193 196 197 198 200 203 203 203 204 205 205 205 206 206 208 209 211 214 217 221 224 228 231 234 237 242 246 250 254 258 263 267 270 271 274 277 280 282 284 286 287 289 291 293 295 296 297 299 299 300 300 302 303 304 305 307 307 307 307 305 304 303 302 302 301 300 299 297 296 295 294 294 295 296 297 297 296 296 296 296 295 294 293 293